Home   Weather   Xi'an   Past weeks

Flag for China Past Weather in Xi'an, Shaanxi, China — Yesterday and Last 2 Weeks

Now
36 °F

Passing clouds.


Feels Like: 31 °F
Forecast: 24 / 46 °F
Wind: 6 mph from East

Location: Xian/Xianyang

Current Time: Jan 20, 2017 at 4:17:54 pm

Latest Report: Jan 20, 2017 at 3:00 pm


Visibility: N/A

Pressure: 30.39 "Hg

Humidity: 21%

Dew Point: 0 °F

Location of Xi'anLocation

Past Weather in Xi'an — Graph

°F

Xi'an Temperature Yesterday

Maximum temperature yesterday: 45 °F (at 1:00 pm)
Minimum temperature yesterday: 27 °F (at 1:00 am)
Average temperature yesterday: 36 °F

High & Low Weather Summary for the Past Weeks

 TemperatureHumidityPressure
High50 °F (Jan 12, 3:00 pm)100% (Jan 6, 8:00 am)30.60 "Hg (Jan 6, 8:00 am)
Low18 °F (Jan 13, 6:00 am)16% (Jan 19, 1:00 pm)30.12 "Hg (Jan 13, 3:00 pm)
Average33 °F68%30.30 "Hg
* Reported Jan 5 3:00 pm — Jan 20 3:00 pm, Xi'an, Weather by CustomWeather, © 2017

Note: Actual official high and low records may vary slightly from our data, if they occured in-between our weather recording intervals... More about our weather records

Advertising

Xi'an Weather History for the Previous 24 Hours

Scroll right to see more
 ConditionsComfort  
Time TempWeatherWind HumidityBarometerVisibility
3:00 pm
Fri, Jan 20
36 °FPassing clouds.6 mph21%30.39 "HgN/A
2:00 pm34 °FPassing clouds.8 mph25%30.42 "HgN/A
1:00 pm32 °FPassing clouds.8 mph29%30.45 "HgN/A
12:00 pm30 °FPassing clouds.10 mph29%30.51 "HgN/A
11:00 am28 °FPassing clouds.13 mph31%30.54 "HgN/A
10:00 am27 °FSunny.13 mph33%30.54 "Hg10 mi
9:00 am23 °FSunny.10 mph42%30.54 "Hg10 mi
8:00 am19 °FClear.6 mph49%30.54 "Hg10 mi
7:00 am21 °FClear.10 mph45%30.54 "Hg10 mi
6:00 am23 °FPassing clouds.8 mph42%30.54 "HgN/A
5:00 am23 °FClear.8 mph42%30.54 "Hg10 mi
4:00 am23 °FPassing clouds.8 mph46%30.57 "HgN/A
3:00 am25 °FClear.8 mph42%30.57 "Hg10 mi
2:00 am25 °FClear.6 mph42%30.57 "Hg10 mi
1:00 am25 °FClear.6 mph46%30.60 "Hg10 mi
12:00 am27 °FClear.6 mph43%30.60 "Hg10 mi
11:00 pm
Thu, Jan 19
28 °FPassing clouds.6 mph40%30.60 "HgN/A
10:00 pm28 °FClear.3 mph43%30.57 "Hg10 mi
9:00 pm28 °FClear.3 mph43%30.57 "Hg10 mi
8:00 pm32 °FClear.6 mph34%30.54 "Hg10 mi
7:00 pm34 °FSunny.3 mph27%30.51 "Hg10 mi
6:00 pm37 °FSunny.1 mph23%30.48 "Hg10 mi
5:00 pm43 °FPassing clouds.8 mph17%30.45 "HgN/A
4:00 pm45 °FPassing clouds.6 mph16%30.45 "HgN/A
Weather by CustomWeather, © 2017

See weather overviewHow to use our weather pages